This demonstration page uses our WeatherBlox Daily Observations layout. Learn more.

Left ArrowRight Arrow

39.08367, -84.50855

Hourly Observations for May 13, 2022

Temp ( °F °C ) Dew Point ( °F °C ) Humidity (%) Winds ( mph kmh ) Pressure ( in mb ) Visibility ( mi km ) Precip ( " mm )
12:53 am 00:53 Clear 60 15.6 58 14.4 93 93 Calm 30.05 1018 10 16 0.00 0.00
1:53 am 01:53 Mostly Clear 59 15 57 13.9 93 93 Calm 30.05 1018 10 16 0.00 0.00
2:53 am 02:53 Clear 58 14.4 57 13.9 97 97 Calm 30.05 1018 10 16 0.00 0.00
3:53 am 03:53 Clear 57 13.9 57 13.9 100 100 Calm 30.04 1017 10 16 0.00 0.00
4:53 am 04:53 Clear 56 13.3 56 13.3 100 100 Calm 30.06 1018 10 16 0.00 0.00
5:53 am 05:53 Clear 56 13.3 56 13.3 100 100 Calm 30.05 1018 10 16 0.00 0.00
6:53 am 06:53 Sunny 56 13.3 56 13.3 100 100 Calm 30.06 1018 10 16 0.00 0.00
7:53 am 07:53 Sunny 60 15.6 59 15 96 96 Calm 30.09 1019 10 16 0.00 0.00
8:53 am 08:53 Sunny 68 20 61 16.1 78 78 Calm 30.09 1019 10 16 0.00 0.00
9:53 am 09:53 Sunny 72 22.2 61 16.1 68 68 VRB 7 11 30.09 1019 10 16 0.00 0.00
10:53 am 10:53 Sunny 75 23.9 61 16.1 62 62 SSE 7 11 30.08 1019 10 16 0.00 0.00
11:53 am 11:53 Sunny 77 25 62 16.7 60 60 VRB 3 6 30.06 1018 10 16 0.00 0.00
12:53 pm 12:53 Sunny 79 26.1 61 16.1 54 54 SSE 7 11 30.04 1017 10 16 0.00 0.00
1:53 pm 13:53 Sunny 81 27.2 62 16.7 53 53 VRB 7 11 30.04 1017 10 16 0.00 0.00
2:53 pm 14:53 Mostly Sunny 82 27.8 63 17.2 53 53 SW 8 13 30.02 1017 10 16 0.00 0.00
3:53 pm 15:53 Mostly Sunny 82 27.8 62 16.7 51 51 SSE 5 7 29.99 1016 10 16 0.00 0.00
4:53 pm 16:53 Mostly Sunny 83 28.3 63 17.2 51 51 SE 8 13 29.97 1015 10 16 0.00 0.00
5:53 pm 17:53 Sunny 82 27.8 64 17.8 55 55 S 5 7 29.96 1015 10 16 0.00 0.00
6:53 pm 18:53 Sunny 82 27.8 61 16.1 49 49 SE 6 9 29.94 1014 10 16 0.00 0.00
7:53 pm 19:53 Sunny 79 26.1 62 16.7 56 56 S 6 9 29.93 1014 10 16 0.00 0.00
8:53 pm 20:53 Clear 72 22.2 66 18.9 82 82 Calm 29.95 1014 10 16 0.00 0.00
9:53 pm 21:53 Clear 67 19.4 64 17.8 91 91 Calm 29.95 1014 10 16 0.00 0.00
10:53 pm 22:53 Clear 67 19.4 63 17.2 87 87 Calm 29.94 1014 10 16 0.00 0.00
11:53 pm 23:53 Clear 66 18.9 64 17.8 93 93 Calm 29.96 1015 10 16 0.00 0.00

Powered by AerisWeather